Weather in Kazayak

Russia / Republic of Bashkortostan     54°58′31″N   57°07′53″E
temp.,
°C
wind,
m/s
gust,
m/s
humid.,
%
clouds,
%
prec.,
mm/h
press.,
hPa
HPBL,
m
4 august, wed
wed423:00+21e225780 0.0 101228
02:00+19e225814 0.0 101225
05:00+19e22595 0.0 101239
08:00+22ne11585 0.0 101279
11:00+29ssw223840 0.0 1012644
14:00+33ssw112931 0.0 1011867
17:00+34ese112614 0.0 10101817
20:00+18ese3692100 2.3 101392
5 august, thu
thu523:00+17e489291 2.3 1012144
02:00+17ese2281100 0.0 101141
05:00+18e2268100 0.0 100928
08:00+22e1160100 0.0 100973
11:00+27wsw344380 0.0 1009835
14:00+29w453725 0.0 10101265
17:00+28w4647100 0.0 10101525
20:00+21sw2383100 0.2 101161
6 august, fri
fri623:00+17nw139778 0.3 1012110
02:00+15nw11975 0.1 101218
05:00+14wnw11970 0.1 101311
08:00+16wnw129044 0.0 1013201
11:00+19wnw246958 0.0 1014689
14:00+24nw354367 0.3 10132189
17:00+22nw255495 0.3 1014859
20:00+20nw3859100 0.0 1015431
7 august, sat
sat723:00+18nne2564100 0.0 1015137
02:00+13ene11825 0.0 101611
05:00+11ne008843 0.0 101710
08:00+15w127033 0.0 1018198
11:00+21wnw23459 0.0 10181364
14:00+23nw35355 0.0 10171710
17:00+23nw45385 0.0 10181725
20:00+19nw275846 0.0 1018194
8 august, sun
sun823:00+16nne1160100 0.0 101916
02:00+14nne1166100 0.0 101911
05:00+15nw1163100 0.0 102012
08:00+15sw016789 0.0 102145
11:00+17sw1161100 0.0 1021280
14:00+23wnw24435 0.0 10191225
17:00+24nw35445 0.0 10191475
20:00+20nne1167100 0.0 101914